This demonstration page uses our WeatherBlox Daily Observations layout. Learn more.

Left ArrowRight Arrow

Hourly Observations for August 11, 2022

Temp ( °F °C ) Dew Point ( °F °C ) Humidity (%) Winds ( mph kmh ) Pressure ( in mb ) Visibility ( mi km ) Precip ( " mm )
12:53 am 00:53 Mostly Clear 80 26.7 52 11.1 38 38 E 18 30 30.04 1017 10 16 0.00 0.00
1:53 am 01:53 Clear 78 25.6 52 11.1 40 40 E 14 22 30.04 1017 10 16 0.00 0.00
2:53 am 02:53 Clear 76 24.4 51 10.6 42 42 E 12 19 30.03 1017 10 16 0.00 0.00
3:53 am 03:53 Clear 75 23.9 51 10.6 43 43 ENE 10 17 29.96 1015 10 16 0.00 0.00
4:53 am 04:53 Mostly Cloudy 74 23.3 51 10.6 45 45 ENE 8 13 29.96 1015 10 16 0.00 0.00
5:53 am 05:53 Mostly Cloudy 71 21.7 53 11.7 53 53 E 9 15 29.97 1015 10 16 0.00 0.00
6:53 am 06:53 Mostly Cloudy 68 20 57 13.9 68 68 E 7 11 29.98 1015 10 16 0.00 0.00
7:53 am 07:53 Mostly Sunny 71 21.7 59 15 66 66 E 6 9 29.99 1016 10 16 0.00 0.00
8:53 am 08:53 Partly Cloudy 72 22.2 56 13.3 57 57 ENE 5 7 29.99 1016 10 16 0.00 0.00
9:53 am 09:53 Sunny 77 25 57 13.9 50 50 E 7 11 29.98 1015 10 16 0.00 0.00
10:53 am 10:53 Sunny 83 28.3 57 13.9 41 41 VRB 6 9 29.96 1015 10 16 0.00 0.00
11:53 am 11:53 Sunny 87 30.6 55 12.8 34 34 VRB 3 6 29.94 1014 10 16 0.00 0.00
12:53 pm 12:53 Sunny 91 32.8 53 11.7 28 28 WNW 9 15 30.01 1016 10 16 0.00 0.00
1:53 pm 13:53 Sunny 93 33.9 53 11.7 26 26 W 7 11 30.00 1016 10 16 0.00 0.00
2:53 pm 14:53 Sunny 96 35.6 52 11.1 23 23 W 14 22 29.99 1016 10 16 0.00 0.00
3:53 pm 15:53 Sunny 96 35.6 51 10.6 22 22 W 6 9 29.97 1015 10 16 0.00 0.00
4:53 pm 16:53 Sunny 97 36.1 49 9.4 20 20 NNW 7 11 29.96 1015 10 16 0.00 0.00
5:53 pm 17:53 Sunny 98 36.7 49 9.4 19 19 NNW 10 17 29.86 1011 10 16 0.00 0.00
6:53 pm 18:53 Mostly Sunny 97 36.1 45 7.2 17 17 NW 16 26 29.86 1011 10 16 0.00 0.00
7:53 pm 19:53 Sunny 94 34.4 46 7.8 19 19 NW 12 19 29.86 1011 10 16 0.00 0.00
8:53 pm 20:53 Clear 87 30.6 48 8.9 26 26 N 8 13 29.89 1012 10 16 0.00 0.00
9:53 pm 21:53 Clear 85 29.4 48 8.9 28 28 N 7 11 29.91 1013 10 16 0.00 0.00
10:53 pm 22:53 Clear 74 23.3 47 8.3 38 38 Calm 29.93 1013 10 16 0.00 0.00
11:53 pm 23:53 Clear 71 21.7 48 8.9 44 44 SSE 3 6 29.93 1014 10 16 0.00 0.00

Powered by AerisWeather